• în Republica Moldova
  • Lista ţărilor
  • Pe 7 zile
  • Temperatura apei
  • Hartă satelitară
  • Meteo pe hartă
  • Widget-uri
  • user-avatar
    Intrare

    Meteo pe oră la Annaba

    Astăzi, 22 Februarie, Joi

    Timp Temperatura Precipitaţii Vânt Presiune Umiditate
    00:00 +9°C° 1 mm 3 m/s 749 mmHg 95%
    01:00 +8°C° 1 mm 3 m/s 749 mmHg 96%
    02:00 +8°C° 0,7 mm 3 m/s 749 mmHg 95%
    03:00 +7°C° 0,7 mm 4 m/s 749 mmHg 95%
    04:00 +7°C° 0,7 mm 4 m/s 748 mmHg 94%
    05:00 +7°C° 0,3 mm 4 m/s 748 mmHg 93%
    06:00 +7°C° 0,3 mm 5 m/s 748 mmHg 93%
    07:00 +7°C° 0,3 mm 5 m/s 748 mmHg 92%
    08:00 +7°C° 0,1 mm 5 m/s 749 mmHg 87%
    09:00 +8°C° 0,1 mm 5 m/s 749 mmHg 82%
    10:00 +9°C° 0,1 mm 6 m/s 749 mmHg 77%
    11:00 +10°C° 0,2 mm 5 m/s 749 mmHg 75%
    12:00 +10°C° 0,2 mm 5 m/s 749 mmHg 73%
    13:00 +12°C° 0,2 mm 5 m/s 749 mmHg 72%
    14:00 +10°C° 0,4 mm 5 m/s 749 mmHg 73%
    15:00 +10°C° 0,4 mm 5 m/s 749 mmHg 75%
    16:00 +10°C° 0,4 mm 5 m/s 749 mmHg 76%
    17:00 +9°C° 0,4 mm 5 m/s 750 mmHg 81%
    18:00 +8°C° 0,4 mm 5 m/s 750 mmHg 85%
    19:00 +7°C° 0,4 mm 4 m/s 750 mmHg 90%
    20:00 +6°C° 0,4 mm 5 m/s 751 mmHg 90%
    21:00 +6°C° 0,4 mm 5 m/s 751 mmHg 91%
    22:00 +6°C° 0,4 mm 5 m/s 751 mmHg 92%
    23:00 +5°C° 0,2 mm 5 m/s 751 mmHg 91%

    Mâine, 23 Februarie, Vineri

    Timp Temperatura Precipitaţii Vânt Presiune Umiditate
    00:00 +5°C° 0,2 mm 5 m/s 751 mmHg 91%
    01:00 +4°C° 0,2 mm 6 m/s 751 mmHg 91%
    02:00 +4°C° 0,1 mm 6 m/s 751 mmHg 90%
    03:00 +4°C° 0,1 mm 6 m/s 751 mmHg 89%
    04:00 +3°C° 0,1 mm 6 m/s 751 mmHg 89%
    05:00 +3°C° 0,2 mm 6 m/s 751 mmHg 88%
    06:00 +3°C° 0,2 mm 6 m/s 751 mmHg 87%
    07:00 +3°C° 0,2 mm 6 m/s 751 mmHg 86%
    08:00 +5°C° 0,2 mm 6 m/s 751 mmHg 81%
    09:00 +7°C° 0,2 mm 6 m/s 752 mmHg 76%
    10:00 +9°C° 0,2 mm 6 m/s 752 mmHg 71%
    11:00 +10°C° 0,3 mm 6 m/s 752 mmHg 68%
    12:00 +10°C° 0,3 mm 6 m/s 752 mmHg 66%
    13:00 +11°C° 0,3 mm 7 m/s 752 mmHg 64%
    14:00 +11°C° 0,2 mm 6 m/s 752 mmHg 64%
    15:00 +11°C° 0,2 mm 6 m/s 752 mmHg 65%
    16:00 +11°C° 0,2 mm 6 m/s 752 mmHg 65%
    17:00 +10°C° 0,1 mm 5 m/s 752 mmHg 71%
    18:00 +8°C° 0,1 mm 4 m/s 753 mmHg 77%
    19:00 +8°C° 0,1 mm 3 m/s 753 mmHg 83%
    20:00 +8°C° 0,1 mm 3 m/s 754 mmHg 84%
    21:00 +8°C° 0,1 mm 3 m/s 754 mmHg 85%
    22:00 +7°C° 0,1 mm 2 m/s 755 mmHg 86%
    23:00 +7°C° 0 mm 2 m/s 755 mmHg 87%

    Poimâine, 24 Februarie, Sâmbătă

    Timp Temperatura Precipitaţii Vânt Presiune Umiditate
    00:00 +7°C° 0 mm 3 m/s 755 mmHg 87%
    01:00 +5°C° 0 mm 3 m/s 755 mmHg 87%
    02:00 +6°C° 0 mm 2 m/s 755 mmHg 87%
    03:00 +6°C° 0 mm 2 m/s 754 mmHg 87%
    04:00 +6°C° 0 mm 2 m/s 754 mmHg 87%
    05:00 +6°C° 0 mm 2 m/s 754 mmHg 86%
    06:00 +6°C° 0 mm 2 m/s 755 mmHg 85%
    07:00 +6°C° 0 mm 2 m/s 755 mmHg 84%
    08:00 +8°C° 0 mm 2 m/s 755 mmHg 78%
    09:00 +11°C° 0 mm 1 m/s 755 mmHg 71%
    10:00 +13°C° 0 mm 1 m/s 755 mmHg 65%
    11:00 +14°C° 0 mm 2 m/s 754 mmHg 61%
    12:00 +15°C° 0 mm 2 m/s 754 mmHg 57%
    13:00 +16°C° 0 mm 3 m/s 753 mmHg 54%
    14:00 +16°C° 0 mm 3 m/s 753 mmHg 58%
    15:00 +14°C° 0 mm 3 m/s 753 mmHg 62%
    16:00 +14°C° 0 mm 4 m/s 753 mmHg 67%
    17:00 +13°C° 0,2 mm 4 m/s 753 mmHg 75%
    18:00 +11°C° 0,2 mm 3 m/s 753 mmHg 83%
    19:00 +10°C° 0,2 mm 3 m/s 753 mmHg 91%
    20:00 +10°C° 0,6 mm 3 m/s 754 mmHg 93%
    21:00 +10°C° 0,6 mm 2 m/s 754 mmHg 94%
    22:00 +10°C° 0,6 mm 2 m/s 754 mmHg 96%
    23:00 +10°C° 0,8 mm 2 m/s 754 mmHg 96%

    25 Februarie, Duminică

    Timp Temperatura Precipitaţii Vânt Presiune Umiditate
    00:00 +10°C° 0,8 mm 2 m/s 754 mmHg 97%
    01:00 +10°C° 0,8 mm 2 m/s 754 mmHg 97%
    02:00 +10°C° 0,8 mm 2 m/s 754 mmHg 97%
    03:00 +10°C° 0,8 mm 2 m/s 754 mmHg 96%
    04:00 +9°C° 0,8 mm 2 m/s 754 mmHg 96%
    05:00 +10°C° 0,8 mm 3 m/s 754 mmHg 95%
    06:00 +10°C° 0,8 mm 3 m/s 754 mmHg 94%
    07:00 +10°C° 0,8 mm 4 m/s 755 mmHg 93%
    08:00 +10°C° 0,3 mm 4 m/s 755 mmHg 91%
    09:00 +9°C° 0,3 mm 5 m/s 756 mmHg 89%
    10:00 +9°C° 0,3 mm 5 m/s 756 mmHg 87%
    11:00 +10°C° 0,1 mm 5 m/s 756 mmHg 82%
    12:00 +10°C° 0,1 mm 6 m/s 756 mmHg 77%
    13:00 +11°C° 0,1 mm 7 m/s 756 mmHg 73%
    14:00 +11°C° 0,1 mm 7 m/s 756 mmHg 71%
    15:00 +11°C° 0,1 mm 7 m/s 756 mmHg 69%
    16:00 +11°C° 0,1 mm 8 m/s 756 mmHg 67%
    17:00 +10°C° 0,2 mm 8 m/s 756 mmHg 72%
    18:00 +9°C° 0,2 mm 7 m/s 756 mmHg 77%
    19:00 +8°C° 0,2 mm 7 m/s 757 mmHg 83%
    20:00 +6°C° 0,2 mm 7 m/s 757 mmHg 83%
    21:00 +6°C° 0,2 mm 7 m/s 757 mmHg 82%
    22:00 +6°C° 0,2 mm 7 m/s 757 mmHg 82%
    23:00 +6°C° 0,1 mm 8 m/s 757 mmHg 80%

    26 Februarie, Luni

    Timp Temperatura Precipitaţii Vânt Presiune Umiditate
    00:00 +6°C° 0,1 mm 8 m/s 757 mmHg 78%
    01:00 +6°C° 0,1 mm 8 m/s 757 mmHg 76%
    02:00 +6°C° 0 mm 7 m/s 757 mmHg 75%
    03:00 +6°C° 0 mm 7 m/s 757 mmHg 75%
    04:00 +6°C° 0 mm 7 m/s 756 mmHg 74%
    05:00 +5°C° 0 mm 6 m/s 756 mmHg 74%
    06:00 +5°C° 0 mm 6 m/s 756 mmHg 74%
    07:00 +5°C° 0 mm 6 m/s 756 mmHg 75%
    08:00 +8°C° 0 mm 5 m/s 756 mmHg 69%
    09:00 +10°C° 0 mm 5 m/s 756 mmHg 64%
    10:00 +13°C° 0 mm 5 m/s 756 mmHg 58%
    11:00 +14°C° 0 mm 5 m/s 755 mmHg 53%
    12:00 +15°C° 0 mm 5 m/s 755 mmHg 49%
    13:00 +16°C° 0 mm 5 m/s 754 mmHg 44%
    14:00 +17°C° 0 mm 4 m/s 754 mmHg 47%
    15:00 +17°C° 0 mm 4 m/s 754 mmHg 50%
    16:00 +17°C° 0 mm 4 m/s 753 mmHg 54%
    17:00 +14°C° 0 mm 3 m/s 753 mmHg 62%
    18:00 +13°C° 0 mm 2 m/s 754 mmHg 70%
    19:00 +11°C° 0 mm 1 m/s 754 mmHg 78%
    20:00 +10°C° 0 mm 1 m/s 754 mmHg 79%
    21:00 +10°C° 0 mm 1 m/s 754 mmHg 80%
    22:00 +10°C° 0 mm 1 m/s 753 mmHg 81%
    23:00 +10°C° 0 mm 1 m/s 753 mmHg 80%

    27 Februarie, Marţi

    Timp Temperatura Precipitaţii Vânt Presiune Umiditate
    00:00 +10°C° 0 mm 1 m/s 753 mmHg 78%
    01:00 +10°C° 0 mm 1 m/s 752 mmHg 77%
    02:00 +10°C° 0 mm 1 m/s 752 mmHg 78%
    03:00 +10°C° 0 mm 1 m/s 751 mmHg 79%
    04:00 +10°C° 0 mm 1 m/s 751 mmHg 79%
    05:00 +9°C° 0 mm 1 m/s 751 mmHg 81%
    06:00 +9°C° 0 mm 1 m/s 751 mmHg 83%
    07:00 +9°C° 0 mm 1 m/s 751 mmHg 85%
    08:00 +10°C° 0 mm 1 m/s 751 mmHg 81%
    09:00 +12°C° 0 mm 1 m/s 752 mmHg 77%
    10:00 +14°C° 0 mm 1 m/s 752 mmHg 73%
    11:00 +14°C° 0 mm 1 m/s 752 mmHg 70%
    12:00 +15°C° 0 mm 2 m/s 752 mmHg 68%
    13:00 +16°C° 0 mm 2 m/s 752 mmHg 65%
    14:00 +14°C° 0 mm 3 m/s 752 mmHg 67%
    15:00 +14°C° 0 mm 3 m/s 752 mmHg 69%
    16:00 +13°C° 0 mm 3 m/s 752 mmHg 72%
    17:00 +12°C° 0 mm 3 m/s 752 mmHg 76%
    18:00 +12°C° 0 mm 2 m/s 753 mmHg 81%
    19:00 +10°C° 0 mm 2 m/s 753 mmHg 85%
    20:00 +10°C° 0,3 mm 2 m/s 754 mmHg 88%
    21:00 +10°C° 0,3 mm 2 m/s 754 mmHg 90%
    22:00 +10°C° 0,3 mm 2 m/s 754 mmHg 93%
    23:00 +9°C° 0 mm 2 m/s 755 mmHg 93%
    Arată mai mult